Regional Weather Roundup
Issued by NWS Cleveland, OH

Home | Current Version | Previous Version | Graphics & Text | Print | Product List | Glossary On
Versions: 1 2 3 4 5 6 7 8 9 10 11 12 13 14 15 16 17 18 19 20 21 22 23 24 25 26 27 28 29 30 31 32 33 34 35 36 37 38 39 40 41 42 43 44 45 46 47 48 49 50
000
ASUS41 KCLE 210912
RWRCLE
OHIO REGIONAL WEATHER ROUNDUP
NATIONAL WEATHER SERVICE WILMINGTON, OH
400 AM EST SAT JAN 21 2017

NOTE: "FAIR" INDICATES FEW OR NO CLOUDS BELOW 12,000 FEET WITH NO
SIGNIFICANT WEATHER AND/OR OBSTRUCTIONS TO VISIBILITY.

OHZ001>008-015>018-024>027-034-035-043-044-211000-
   NORTHWEST OHIO

CITY           SKY/WX    TMP DP  RH WIND       PRES   REMARKS
DEFIANCE       CLOUDY    47  45  93 S3        29.71R
FINDLAY        CLOUDY    50  45  83 SE9       29.71F
TOLEDO EXPRESS CLOUDY    46  46 100 SE3       29.71F
TOLEDO EXEC    CLOUDY    48  47  96 S6        29.73F
LIMA           CLOUDY    50  48  93 S10       29.72F
$$

OHZ009>014-019>023-028>033-038-089-211000-
   NORTHEAST OHIO

CITY           SKY/WX    TMP DP  RH WIND       PRES   REMARKS
CLE-HOPKINS    FAIR      46  42  86 S9        29.78F
CLE-LAKEFRONT  FAIR      49  45  86 SE13      29.75F
CUY CO. ARPT   NOT AVBL
LORAIN-ELYRIA  MOCLDY    46  42  86 S9        29.76F
ASHTABULA      CLOUDY    47  47 100 SE6       29.79F FOG
AKRON-CANTON   FAIR      45  43  93 SE7       29.79F FOG
WOOSTER        FOG       38  37  97 CALM      29.78F VSB 1/4
MANSFIELD      CLOUDY    48  47  96 S8        29.77S
YOUNGSTOWN     MOCLDY    44  42  93 SE6       29.79F
$$

OHZ042-051>053-060>062-070>072-077>081-211000-
  SOUTHWEST OHIO

CITY           SKY/WX    TMP DP  RH WIND       PRES   REMARKS
CINC-COVINGTON FAIR      50  47  89 S8        29.74S
CINC-LUNKEN    FOG       43  43 100 CALM      29.76F VSB 1/2
HAMILTON       FAIR      47  46  97 E3        29.75F
DAYTON         FAIR      48  45  89 S8        29.75S
WRIGHT-PAT AFB FAIR      47  47  99 CALM      29.75S
DAYTON GENERAL NOT AVBL
WILMINGTON     FAIR      50  46  86 S6        29.76S
$$

OHZ036-037-039>041-045>050-054>059-063>069-073>076-082>088-211000-
  CENTRAL AND SOUTHEAST OHIO

CITY           SKY/WX    TMP DP  RH WIND       PRES   REMARKS
COLUMBUS       MOCLDY    51  46  83 SE6       29.76F
OSU AIRPORT    FAIR      49  47  93 SE7       29.75F
BOLTON FIELD   FAIR      47  46  96 S5        29.77F
RICKENBACK AFB   N/A     47  47  99 SE5       29.76F
NEWARK         FOG       40  39  97 CALM      29.77F VSB 1/2
MARION         CLOUDY    50  46  86 S8        29.76S
LANCASTER      FAIR      47  45  93 SE8       29.78F
ZANESVILLE     CLOUDY    42  41  96 CALM      29.79F
NEW PHILLY     FOG       40  40 100 E3        29.81F VSB 1/4
$$




USA.gov is the U.S. government's official web portal to all federal, state and local government web resources and services.